Regional Weather Roundup
Issued by NWS Pendleton, OR

Home | Current Version | Previous Version | Text Only | Print | Product List | Glossary On
Versions: 1 2 3 4 5 6 7 8 9 10 11 12 13 14 15 16 17 18 19 20 21 22 23 24 25 26 27 28 29 30 31 32 33 34 35 36 37 38 39 40 41 42 43 44 45 46 47 48 49 50
000
ASUS46 KPDT 252304
RWRPDT
PENDLETON REGIONAL WEATHER ROUNDUP
NATIONAL WEATHER SERVICE PENDLETON OREGON
400 PM PDT FRI JUL 25 2014

NOTE: FAIR INDICATES FEW OR NO CLOUDS BELOW 12,000 FEET WITH NO
SIGNIFICANT WEATHER AND/OR OBSTRUCTIONS TO VISIBILITY.

# INDICATES UNOFFICIAL STATION AND DATA

WAZ520-260010-
EAST SLOPES OF WASHINGTON CASCADES

CITY            SKY/WX      TMP DP  RH  WIND    PRES   REMARKS
#BULLFROG       N/A         76  49  39  W7      N/A
#BUMPING DAM    N/A         70  N/A N/A S6      N/A
#CLE ELUM HS    N/A         77  46  33  SW7     29.99F
#CLE ELUM LAKE  N/A         75  51  43  W1      29.99F
#CLIFFDEL 2NW   N/A         78  43  29  W3      N/A
#EASTON DOT     N/A         72  41  33  N6      N/A
#ELK HTS DOT    N/A         78  78  100 NE1     N/A
#GLENWOOD       N/A         78  57  48  S3      30.00F
#MANASTASH CYN  N/A         69  48  47  NW1     30.04F
#NELSON         N/A         76  51  42  CALM    29.99F
#NELSON 3SW     N/A         73  52  48  E1      30.19F
#PEOH POINT     N/A         72  42  34  SW1     N/A
#RONALD 2NW     N/A         76  54  46  SW2     29.94S
#SOUTH BLEWITT  N/A         77  47  35  CALM    N/A
#TROUT LAKE 1NE N/A         76  53  45  E2      30.00F
$$

WAZ521-260010-
SIMCOE HIGHLANDS

CITY            SKY/WX      TMP DP  RH  WIND    PRES   REMARKS
#BICKLETON HS   N/A         74  35  24  S2      30.12S
#SATUS PASS DOT N/A         78  36  22  CALM    N/A
#CENTERVILLE 1SWN/A         79  45  30  W7      29.95F
#GOLDENDALE 1NE N/A         80  35  20  SW3     N/A
#GOLDENDALE 1S  N/A         82  47  29  NW5     30.01F
#GOLDENDALE 5WNWN/A         80  46  30  W5      29.98F
#GOODNOE HILLS  N/A         84  45  26  SW12    29.95F
#LYLE 6NE       N/A         76  51  42  SW3     29.98F
$$

WAZ026-260010-
KITTITAS VALLEY

CITY            SKY/WX      TMP DP  RH  WIND    PRES   REMARKS
ELLENSBURG AP   SUNNY       82  45  27  VRB6    30.03F
#ELLENSBURG CWU N/A         79  46  31  CALM    29.94F
#ELLENSBURG 3NE N/A         77  49  37  S2      30.03F
#ELLENSBURG 1E  N/A         83  47  28  CALM    N/A
#KITTITAS 3S    N/A         77  49  37  NE2     29.96F
#RYEGRASS DOT   N/A         75  39  27  N5      N/A
#THORP 6N       N/A         77  47  35  S5      30.01F
$$

WAZ027-260010-
YAKIMA VALLEY

CITY            SKY/WX      TMP DP  RH  WIND    PRES   REMARKS
YAKIMA AIRPORT  MOSUNNY     82  40  22  E3      30.01F
YAKIMA-VAGABOND SUNNY       81  41  24  W8      30.03F
#COWICHE 1N     N/A         76  50  40  CALM    30.16F
#DONALD 2NE     N/A         67  43  42  SW1     30.30S
#GRANDVIEW      N/A         78  42  28  CALM    30.00F
#MABTON         N/A         80  49  34  N6      30.00F
#MOXEE 2E       N/A         79  24  13  CALM    29.92F
#NACHES 2SW     N/A         77  52  42  E1      30.06S
#PARKER DOT     N/A         80  43  27  SW1     N/A
#SELAH 8E       N/A         79  44  29  W3      N/A
#TERRACE HTS    N/A         81  52  37  CALM    29.95F
#TOPPENISH      N/A         79  44  29  CALM    29.90F
#I82 S UMTANUM RN/A         77  47  35  SW7     N/A
#UNION GAP DOT  N/A         81  45  28  S1      N/A
#WAPATO 4NE     N/A         67  43  42  SW1     30.30S
#W YAKIMA       N/A         78  43  29  N1      29.98F
#WHITE SWAN 5E  N/A         78  50  38  N6      29.98F
#WILEY CITY 3W  N/A         74  37  26  CALM    30.03F
#ZILLAH DOT     N/A         80  42  26  NE1     N/A
$$

WAZ028-260010-
LOWER COLUMBIA BASIN...WASHINGTON

CITY            SKY/WX      TMP DP  RH  WIND    PRES   REMARKS
HANFORD         SUNNY       83  43  24  E7      30.01F
PASCO           SUNNY       82  49  32  N7      30.01F
PROSSER AWOS    N/A         82  46  28  E3      30.03F
RICHLAND AWOS   SUNNY       82  45  27  NW5     30.01F
#BASIN CITY 5SW N/A         81  54  39  N1      30.02F
#BENTON CITY    N/A         79  50  36  E2      29.89F
#CONNELL 5N     N/A         80  47  31  N2      30.00F
#CONNELL 5NW    N/A         76  46  34  NW1     29.97F
#ELTOPIA        N/A         81  53  38  NW3     29.96F
#ELTOPIA 6NW    N/A         80  51  36  N2      29.00F
#KENNEWICK 3S   N/A         82  54  38  CALM    29.99F
#PASCO-BROADMOORN/A         83  52  34  NW1     29.89S
#PATERSON       N/A         80  42  26  SE5     29.98F
#PROSSER DOT    N/A         82  43  25  NE5     N/A
#PROSSER        N/A         82  44  26  N2      29.98F
#SAGEMOOR 2W    N/A         81  49  33  CALM    29.86F
#TOUCHET 2S     N/A         84  53  34  CALM    29.96F
#WEST PASCO     N/A         82  52  35  NE2     30.00F
$$

WAZ029-260010-
FOOTHILLS OF THE BLUES...WASHINGTON

CITY            SKY/WX      TMP DP  RH  WIND    PRES   REMARKS
WALLA WALLA AP  SUNNY       81  38  21  CALM    30.03F
#COLLEGE PLACE  N/A         90  48  24  S1      30.01F HX 87
#DAYTON SCHOOL  N/A         78  37  23  S5      30.02F
#DELANEY DOT    N/A         83  36  19  W6      N/A
#LOWDEN 2SE     N/A         83  49  31  W2      29.96F
#PLEASANT VIEW 1N/A         79  45  30  SW1     30.03F
#PRESCOTT       N/A         81  47  30  W3      29.97F
#SUDBURY        N/A         83  N/A N/A CALM    N/A
#WHITMAN COLLEGEN/A         80  44  28  S3      30.04F
#WAITSBURG 8N   N/A         83  32  16  S6      29.88S
#WALLA WALLA 5E N/A         84  48  29  S15     N/A
#WALLA WALLA U  N/A         81  44  27  CALM    29.98S
#WHITMAN MISSIONN/A         81  48  32  CALM    29.99F
$$

WAZ030-260010-
BLUE MOUNTAINS...WASHINGTON

CITY            SKY/WX      TMP DP  RH  WIND    PRES   REMARKS
$$

ORZ009-041-WAZ024-260010-
COLUMBIA RIVER GORGE

CITY            SKY/WX      TMP DP  RH  WIND    PRES   REMARKS
HOOD RIVER AP   SUNNY       79  48  34  NW10    30.02F
THE DALLES AP   SUNNY       86  45  24  N10     29.98F
#ARLINGTON AIRPON/A         82  40  22  NW5     N/A
#ARLINGTON HS   N/A         83  40  22  W5      29.88F
#CELILO DOT     N/A         89  47  24  SW2     N/A
#MARYHILL       N/A         82  44  26  CALM    N/A
#MOSIER 1S      N/A         79  39  24  W10     30.06F
#MURDOCK        N/A         81  54  39  NW12    29.99F
#RUFUS DOT      N/A         85  52  32  S5      N/A

$$

ORZ510-260010-
NORTH CENTRAL OREGON

CITY            SKY/WX      TMP DP  RH  WIND    PRES   REMARKS
#CHENOWITH 1W   N/A         74  46  37  W18     N/A
#COW CYN RST AREN/A         79  33  19  W7      N/A
#DUFUR 9E       N/A         74  43  33  NW8     30.06F
#GRASS VALLEY 1SN/A         81  43  26  W2      30.01F
#MAUPIN SCHOOL  N/A         85  42  22  NE2     30.02F
#MORO SCHOOL    N/A         78  47  34  NW7     30.06S
#SHANIKO 5WSW   N/A         77  30  18  N14     N/A
#SHANIKO 4NW    N/A         73  33  23  N5      30.11S
#TYGH VALLEY 2NEN/A         83  47  28  S2      29.97F
#WAPANITIA AIRPON/A         81  44  27  E1      29.99F
#WASCO 5NE      N/A         82  46  28  CALM    29.98F
$$

ORZ511-260010-
CENTRAL OREGON

CITY            SKY/WX      TMP DP  RH  WIND    PRES   REMARKS
BEND AIRPORT    SUNNY       77  32  19  CALM    30.09F
MADRAS AIRPORT  SUNNY       81  32  17  N9      30.07F
REDMOND AIRPORT SUNNY       81  33  18  NW10    30.06F
#BEND 6E        N/A         78  29  17  CALM    29.90F
#BEND 1SW       N/A         76  30  18  NE2     N/A
#BEND-AWBREY    N/A         81  40  23  W3      29.98F
#BEND-KIM LN    N/A         80  43  27  N1      30.06S
#CROOKED RVR RANN/A         79  41  26  E6      29.98F
#CULVER         N/A         79  38  23  N2      30.02F
#LAKE BILLY CHINN/A         81   4   5  N1      30.06F
#POWELL BUTTE 3EN/A         77  35  22  N5      N/A
#POWELL BUTTE   N/A         80  46  30  NW3     29.72F
#PRINEVILLE 3N  N/A         78  42  28  SW5     29.93F


ORZ509-260010-
EAST SLOPES OF OREGON CASCADES

CITY            SKY/WX      TMP DP  RH  WIND    PRES   REMARKS
#BLUE BOX PASS  N/A         73  16  11  W3      N/A
#BLACK BUTTE RNCN/A         82  46  28  CALM    30.00F
#CAMP SHERMAN   N/A         84  42  23  CALM    29.97S
#LA PINE DOT    N/A         83   4   5  W6      N/A
#LA PINE 4NW    N/A         79  36  21  CALM    30.01F
#LAVA BUTTE DOT N/A         79  30  17  NE3     N/A
#MT BACHELOR-LOWN/A         N/A N/A N/A MISG    N/A
#MT BACHELOR-MIDN/A         61  35  38  S5      N/A
#SISTERS AIRPOR N/A         79  50  36  N2      30.05F
#SISTERS ODOT   N/A         80  N/A N/A S5      N/A
#SISTERS 3N     N/A         79  32  18  CALM    30.07F
#SUNRIVER       N/A         81  34  18  E2      29.87F
#SUNRIVER AP    N/A         77  32  19  SE2     29.94F
#SUTTLE LK DOT  N/A         74  47  38  W15     N/A
#TUMALO 3W      N/A         78  39  25  NE5     29.87F
#WANOGA BUTTE D N/A         67  35  30  N2      N/A

$$

ORZ044-260010-
LOWER COLUMBIA BASIN...OREGON

CITY            SKY/WX      TMP DP  RH  WIND    PRES   REMARKS
HERMISTON       SUNNY       83  46  27  VRB5    30.00F
#BOARDMAN SCHOOLN/A         69  53  57  CALM    29.98F
#BOARDMAN 3W    N/A         82  52  35  NE5     29.71F
#BOARDMAN 8SW   N/A         81  48  32  N3      29.98F
#IONE SCHOOL    N/A         81  42  25  N1      30.00F
#IRRIGON 4NW    N/A         82  39  22  N3      N/A
#UMATILLA SCHOOLN/A         85  54  35  W1      30.06F
#UMATILLA       N/A         81  47  30  N1      29.98F
$$

ORZ507-260010-
NORTHERN FOOTHILLS OF THE BLUES

CITY            SKY/WX      TMP DP  RH  WIND    PRES   REMARKS
PENDLETON AIRPT SUNNY       81  37  21  NW10    30.02F
#ADAMS 3WNW     N/A         80  42  26  NE5     29.97F
#ATHENA         N/A         78  43  29  E1      30.01F
#HELIX SCHOOL   N/A         80  41  25  CALM    29.99F
#HELIX 3N       N/A         75  43  32  NE12    30.01F
#HOLDMAN 5SE    N/A         80  45  29  CALM    30.03F
#HOLDMAN 6E     N/A         83  41  23  CALM    29.81F
#M-F FERNDALE   N/A         92  51  25  CALM    30.01F HX 89
#M-F GROVE ELEM N/A         79  42  27  N1      30.01F
#M-FREEWATER 5SEN/A         82  51  34  W2      30.02F
#PDT AQUATIC CTRN/A         81  47  30  W3      29.95F
#PENDLETON DNTN N/A         83  42  24  CALM    29.98S
#PENDLETON 5NE  N/A         83  46  27  CALM    29.98F
#PDT SUNRIDGE   N/A         82  41  23  S1      30.02F
#PENDLETON 7NW  N/A         77  51  40  W1      29.29F
#PILOT ROCK     N/A         78  43  29  N2      30.05F
#TUTUILLA       N/A         81  44  27  CALM    29.92F
#UMAPINE 2E     N/A         83  49  31  NE1     29.98F
#WESTON SCHOOL  N/A         76  41  28  NE5     30.01F

$$

ORZ508-260010-
SOUTHERN FOOTHILLS OF THE BLUES

CITY            SKY/WX      TMP DP  RH  WIND    PRES   REMARKS
#AJAX           N/A         N/A N/A N/A NE5     30.07F
#CONDON SCHOOL  N/A         77  44  31  NE3     30.03F
#CONDON 5W      N/A         75  35  23  NW7     30.06F
#HEPPNER EOC    N/A         81  39  22  NW2     29.94F
#HEPPNER 4NE    N/A         76  41  28  N6      30.00F
#LEXINGTON 2SE  N/A         82  43  25  N6      30.00F
#MIKKALO        N/A         81  37  21  NW6     30.04F
#OLEX 4N        N/A         81  39  22  CALM    30.00F
#RUGGS 5NE      N/A         82  42  24  N6      30.27S
#RUGGS 2SW      N/A         77  40  26  VRB5    30.05F

$$

ORZ502-503-260010-
BLUE MOUNTAINS

CITY            SKY/WX      TMP DP  RH  WIND    PRES   REMARKS
MEACHAM         SUNNY       74  45  35  VRB3    30.11F
#BATTLE MTN DOT N/A         70  46  42  SW2     N/A
#HARDMAN 10S    N/A         74  40  29  N2      30.16F
#HEPPNER 15SE   N/A         72  41  33  N1      30.04F
#LADD CYN SMT   N/A         78  33  19  N8      N/A
#LADD CREEK ODOTN/A         78  45  31  NE8     N/A
#LONG CREEK HS  N/A         74  37  26  NW7     30.03F
#PIKES PEAK     N/A         69  43  39  W2      27.99S
#TOLLGATE       N/A         65  43  45  SW5     30.09S
#TROY SCHOOL    N/A         85  50  30  E3      29.78F
#UKIAH          N/A         75  45  34  W8      30.02F
#WESTON 4E      N/A         74  43  33  NW2     29.97F
$$

ORZ505-260010-
JOHN DAY BASIN

CITY            SKY/WX      TMP DP  RH  WIND    PRES   REMARKS
JOHN DAY        SUNNY       82  23  11  NW7     30.07F
#JOHN DAY KJDY  N/A         85  48  28  CALM    30.05R
#MONUMENT HS    N/A         84  31  15  CALM    29.81F
#MT. VERNON 5SE N/A         78  28  16  CALM    30.04F
#WINLOCK        N/A         85  38  19  NW5     30.13F
$$

ORZ506-260010-
OCHOCO AND JOHN DAY HIGHLANDS

CITY            SKY/WX      TMP DP  RH  WIND    PRES   REMARKS
#BUCK CREEK DOT N/A         81  31  16  NE5     N/A
#HORSE RIDGE DO N/A         78  27  15  NW7     N/A
#KEYES SMT DOT  N/A         76  37  24  SE2     N/A
#PINE MTN OBS   N/A         67  26  21  N5      N/A
#PRAIRIE CITY   N/A         83  29  14  CALM    29.84F
#SENECA 9NW     N/A         80  33  18  NE1     29.96F
$$

ORZ049-260010-
GRANDE RONDE VALLEY

CITY            SKY/WX      TMP DP  RH  WIND    PRES   REMARKS
LA GRANDE       SUNNY       81  41  24  NE8     30.03F
#COVE           N/A         80  41  25  NW3     29.96F
#COVE SCHOOL    N/A         81  39  22  CALM    30.03S
#COVE 6NW       N/A         78  39  25  N7      30.01F
#ELGIN 3N       N/A         78  36  22  W3      29.78F
#ELGIN 1E       N/A         81  47  30  SW6     N/A
#IMBLER SCHOOL  N/A         77  45  32  CALM    30.00F
#ISLAND CITY 4N N/A         79  50  36  NE5     29.91F
#LADD CYN DOT   N/A         81  45  28  N7      N/A
#UNION 1S       N/A         81  45  28  N2      29.87F
$$

ORZ050-260010-
WALLOWA COUNTY

CITY            SKY/WX      TMP DP  RH  WIND    PRES   REMARKS
#ENTERPRISE AP  N/A         66  35  32  CALM    29.99
#ENTERPRISE HS  N/A         77  41  28  CALM    30.07F
#IMNAHA SCHOOL  N/A         86  25  11  VRB5    29.91F
#JOSEPH 3N      N/A         74  45  35  NW9     30.11S
#JOSEPH 3W      N/A         74  35  24  N7      29.97S
#LOSTINE        N/A         78  38  24  NW3     29.78F
#MT HOWARD 8000 N/A         55  39  55  N5      30.33R
#PROMISE 1S     N/A         73  45  37  NW3     30.09R
#SHEEP RDG 7000 N/A         58  36  44  CALM    30.06F
#WALLOWA SCHOOL N/A         79  37  22  NW2     30.87F



$$



USA.gov is the U.S. government's official web portal to all federal, state and local government web resources and services.